EW3904 Weather Reports


Display with metric or nautical units.
time (UTC)temp
F
wind
direction
speed
MPH
gust
MPH
rain 1hr
in
rain 24hr
in
rain mn
in
humidity
%
barometer
mb
20260510081211 62 298 2.0 4.0 0.00 0.00 0.00 95 1013.6
20260510080210 62 304 2.0 3.0 0.00 0.00 0.00 95 1013.6
20260510075211 61 302 1.0 2.0 0.00 0.00 0.00 94 1013.8
20260510074210 62 319 2.0 3.0 0.00 0.00 0.00 94 1013.8
20260510073210 62 304 2.0 3.0 0.00 0.00 0.00 94 1013.7
20260510072211 62 260 2.0 2.0 0.00 0.00 0.00 94 1013.5
20260510071210 62 261 3.0 3.0 0.00 0.00 0.00 94 1013.6
20260510070210 62 274 2.0 3.0 0.00 0.00 0.00 94 1013.6
20260510064210 62 261 1.0 3.0 0.00 0.00 0.00 93 1013.5
20260510063210 62 284 1.0 3.0 0.00 0.00 0.00 93 1013.5
20260510062210 63 325 2.0 4.0 0.00 0.00 0.00 92 1013.5
20260510061209 63 289 1.0 4.0 0.00 0.00 0.00 92 1013.6
20260510060210 63 315 4.0 5.0 0.00 0.00 0.00 92 1013.6
20260510055210 63 282 2.0 4.0 0.00 0.00 0.00 92 1013.6
20260510054210 63 276 2.0 4.0 0.00 0.00 0.00 92 1013.7
20260510053209 63 294 3.0 4.0 0.00 0.00 0.00 92 1013.6
20260510052210 63 299 3.0 4.0 0.00 0.00 0.00 92 1013.8
20260510051209 63 300 2.0 5.0 0.00 0.00 0.00 92 1013.8
20260510050209 63 325 0.0 4.0 0.00 0.00 0.00 92 1013.9
20260510045209 63 298 4.0 4.0 0.00 0.00 0.00 93 1014.1
20260510044209 63 291 2.0 5.0 0.00 0.00 0.00 93 1014.1
20260510043209 63 313 0.0 2.0 0.00 0.00 0.00 93 1013.9
20260510042209 62 322 1.0 2.0 0.00 0.00 0.00 94 1014.3
20260510041209 62 317 1.0 2.0 0.00 0.00 0.00 94 1014.3
20260510040239 62 277 0.0 0.0 0.00 0.00 0.00 94 1014.3
20260510033209 62 277 0.0 0.0 0.00 0.00 0.00 94 1014.3
20260510032208 62 277 0.0 0.0 0.00 0.00 0.00 94 1014.2
20260510031209 62 277 0.0 0.0 0.00 0.00 0.00 94 1014.3
20260510030208 62 277 0.0 0.0 0.00 0.00 0.00 94 1014.2
20260510025208 62 277 0.0 0.0 0.00 0.00 0.00 93 1014.2
20260510021208 63 277 0.0 0.0 0.00 0.00 0.00 92 1013.8
20260510015208 64 277 0.0 0.0 0.00 0.00 0.00 91 1013.7
20260510014208 64 277 0.0 0.0 0.00 0.00 0.00 92 1013.6
20260510013238 64 277 0.0 0.0 0.00 0.00 0.00 91 1013.5
20260510012238 64 277 0.0 0.0 0.00 0.00 0.00 91 1013.4
20260510011208 64 277 0.0 0.0 0.00 0.00 0.00 91 1013.4
20260510010238 64 277 0.0 0.0 0.00 0.00 0.00 91 1013.1
20260510005238 65 277 0.0 0.0 0.00 0.00 0.00 90 1012.9
20260510004237 65 277 0.0 0.0 0.00 0.00 0.00 89 1012.8
20260510003238 66 277 0.0 0.0 0.00 0.00 0.00 87 1012.5
20260510001208 66 277 0.0 0.0 0.00 0.00 0.00 86 1012.7
20260510000237 67 277 1.0 2.0 0.00 0.00 0.00 86 1012.6
20260509235238 67 261 2.0 3.0 0.00 0.00 0.00 85 1012.5
20260509234207 67 242 2.0 2.0 0.00 0.00 0.00 84 1012.4
20260509232237 68 283 1.0 3.0 0.00 0.00 0.00 82 1012.1
20260509230237 68 257 2.0 3.0 0.00 0.00 0.00 81 1011.9
20260509225207 68 244 2.0 3.0 0.00 0.00 0.00 81 1011.8
20260509224236 69 257 4.0 4.0 0.00 0.00 0.00 80 1011.9
20260509222236 69 295 3.0 3.0 0.00 0.00 0.00 78 1011.6
20260509220237 69 271 1.0 4.0 0.00 0.00 0.00 76 1011.7
20260509215237 70 245 2.0 4.0 0.00 0.00 0.00 76 1011.6
20260509214236 70 264 4.0 5.0 0.00 0.00 0.00 76 1011.8
20260509213236 70 234 3.0 7.0 0.00 0.00 0.00 75 1011.7
20260509212207 70 210 4.0 6.0 0.00 0.00 0.00 75 1011.6
20260509211207 69 243 3.0 4.0 0.00 0.00 0.00 74 1011.4
20260509210237 70 257 1.0 8.0 0.00 0.00 0.00 75 1011.6
20260509205206 70 210 3.0 6.0 0.00 0.00 0.00 74 1011.5
20260509204236 69 199 0.0 4.0 0.00 0.00 0.00 74 1011.5
20260509202206 69 269 4.0 5.0 0.00 0.00 0.00 74 1011.4
20260509201206 69 277 2.0 4.0 0.00 0.00 0.00 74 1011.4
20260509200236 69 225 4.0 4.0 0.00 0.00 0.00 73 1011.5
20260509195206 69 292 4.0 4.0 0.00 0.00 0.00 76 1011.5
20260509194236 69 240 4.0 4.0 0.00 0.00 0.00 72 1011.7
20260509193236 70 241 3.0 5.0 0.00 0.00 0.00 73 1012.1
20260509192236 69 180 3.0 4.0 0.00 0.00 0.00 74 1012.1
20260509191236 69 254 4.0 7.0 0.00 0.00 0.00 74 1012.1
20260509190235 69 265 2.0 6.0 0.00 0.00 0.00 76 1012.0
20260509184236 69 257 4.0 7.0 0.00 0.00 0.00 77 1012.3
20260509183206 69 252 6.0 7.0 0.00 0.00 0.00 78 1012.4
20260509182235 69 223 3.0 7.0 0.00 0.00 0.00 79 1012.6
20260509181205 69 227 4.0 8.0 0.00 0.00 0.00 81 1012.6
20260509180205 68 223 6.0 9.0 0.00 0.00 0.00 80 1012.9
20260509175235 68 240 4.0 9.0 0.00 0.00 0.00 81 1013.0
20260509174235 68 248 4.0 8.0 0.00 0.00 0.00 82 1012.8
20260509173206 67 254 6.0 9.0 0.00 0.00 0.00 83 1012.7
20260509172235 67 267 5.0 9.0 0.00 0.00 0.00 83 1012.7
20260509170235 67 323 5.0 8.0 0.00 0.00 0.00 85 1012.3
20260509165204 67 273 6.0 9.0 0.00 0.00 0.00 85 1012.9
20260509163204 67 298 4.0 10.0 0.00 0.00 0.00 85 1012.7
20260509162235 66 259 3.0 8.0 0.00 0.00 0.00 86 1012.6
20260509161235 66 298 6.0 10.0 0.00 0.00 0.00 86 1012.9
20260509160234 67 299 4.0 7.0 0.00 0.00 0.00 87 1012.6
20260509155235 66 287 4.0 10.0 0.00 0.00 0.00 87 1012.5
20260509154235 66 281 4.0 9.0 0.00 0.00 0.00 87 1012.3
20260509152234 66 271 5.0 10.0 0.00 0.00 0.00 89 1012.3
20260509151234 65 267 10.0 12.0 0.00 0.00 0.00 89 1012.7
20260509150234 65 290 7.0 12.0 0.00 0.00 0.00 89 1012.6
20260509145234 65 255 10.0 11.0 0.00 0.00 0.00 89 1012.8
20260509143234 64 256 9.0 10.0 0.00 0.00 0.00 90 1012.7
20260509142234 64 260 8.0 9.0 0.00 0.00 0.00 91 1012.8
20260509141234 63 213 7.0 15.0 0.00 0.00 0.00 91 1012.7
20260509140234 63 249 4.0 5.0 0.00 0.00 0.00 92 1012.7
20260509135234 62 213 4.0 7.0 0.00 0.00 0.00 93 1013.2
20260509134234 62 244 4.0 7.0 0.00 0.00 0.00 93 1012.9
20260509133233 62 207 4.0 6.0 0.00 0.00 0.00 93 1012.5
20260509132233 61 228 4.0 7.0 0.00 0.00 0.00 93 1012.6
20260509131234 61 220 3.0 5.0 0.00 0.00 0.00 93 1012.3
20260509130233 61 215 4.0 6.0 0.00 0.00 0.00 93 1012.5
20260509125233 60 208 2.0 4.0 0.00 0.00 0.00 94 1012.5
20260509124233 60 175 1.0 5.0 0.00 0.00 0.00 94 1012.7
20260509123234 60 180 3.0 4.0 0.00 0.00 0.00 94 1012.6
20260509122233 60 196 1.0 4.0 0.00 0.00 0.00 94 1012.6
20260509121233 59 232 2.0 2.0 0.00 0.00 0.00 95 1012.6
20260509120233 59 305 1.0 1.0 0.00 0.00 0.00 95 1012.2
20260509115233 59 186 1.0 2.0 0.00 0.00 0.00 95 1012.1
20260509113233 59 213 1.0 4.0 0.00 0.00 0.00 94 1012.0
20260509112232 59 213 2.0 4.0 0.00 0.00 0.00 94 1012.0
20260509111233 59 182 0.0 2.0 0.00 0.00 0.00 94 1011.8
20260509110233 59 167 0.0 3.0 0.00 0.00 0.00 94 1011.6
20260509105233 59 194 1.0 3.0 0.00 0.00 0.00 95 1012.0
20260509103233 59 260 0.0 3.0 0.00 0.00 0.00 95 1012.0
20260509101233 58 49 0.0 0.0 0.00 0.00 0.00 95 1012.4
20260509100232 57 49 0.0 0.0 0.00 0.00 0.00 96 1012.4
20260509095232 57 49 0.0 0.0 0.00 0.00 0.00 95 1012.4
20260509094232 57 78 0.0 0.0 0.00 0.00 0.00 95 1012.1
20260509093232 57 78 0.0 0.0 0.00 0.00 0.00 95 1012.2
20260509091232 57 78 0.0 0.0 0.00 0.00 0.00 95 1012.1
20260509090233 57 160 0.0 0.0 0.00 0.00 0.00 95 1011.6
20260509085232 58 204 0.0 0.0 0.00 0.00 0.00 94 1011.8
20260509084232 58 204 0.0 0.0 0.00 0.00 0.00 95 1011.7
20260509083232 58 204 0.0 0.0 0.00 0.00 0.00 94 1011.7